Weather in Lelchitsi

Belarus     51°47′15″N   28°19′29″E
temp.,
°C
wind,
m/s
gust,
m/s
humid.,
%
clouds,
%
prec.,
mm/h
press.,
hPa
HPBL,
m
11 may, tue
tue1100:00+9ese38760 0.0 1024159
03:00+7se36770 0.0 102495
06:00+7ese23785 0.0 102463
09:00+14e34551 0.0 1024435
12:00+18e34370 0.0 10221159
15:00+20e34361 0.0 10211259
18:00+20e34440 0.0 10201004
21:00+13ene35761 0.0 101983
12 may, wed
wed1200:00+12ene39905 0.0 1019190
03:00+11e4109855 0.0 1019421
06:00+8e412925 0.0 1019515
09:00+11ese68654 0.0 1019982
12:00+13ese695445 0.0 10191399
15:00+15ese685015 0.0 10171579
18:00+14e3759100 0.0 10161338
21:00+10e2577100 0.0 1014102
13 may, thu
thu1300:00+8e2393100 0.0 101348
03:00+8ese2390100 0.0 101183
06:00+9ese2393100 0.4 1010123
09:00+10se3588100 0.5 1010331
12:00+12se5771100 0.1 1010764
15:00+15se5853100 0.1 10081786
18:00+11sse51184100 0.3 1008788
21:00+9se51592100 2.1 1008672
14 may, fri
fri1400:00+11se61391100 0.1 1007756
03:00+11se41194100 0.1 1006786
06:00+11sse41096100 0.6 1006582
09:00+14sse478545 1.4 1007513
12:00+19sse355581 0.0 10061287
15:00+19sse3561100 0.6 10051067
18:00+15s51085100 2.5 1006517
21:00+13ssw3893100 2.8 1006316
15 may, sat
sat1500:00+12sw2698100 1.7 1006189
03:00+11wsw3995100 2.0 1007284
06:00+9sw289710 0.0 1008235
09:00+13sw488278 0.0 1009649
12:00+14wsw5776100 0.1 1010822
15:00+17wsw576381 0.3 1010977
18:00+17w456197 0.3 10101234
21:00+12w228744 0.4 101112